FW0743 Weather Reports


time (UTC)temp
F
wind
direction
speed
knots
gust
knots
rain 1hr
in
rain 24hr
in
rain mn
in
humidity
%
barometer
mb
20260902024509 65 160 2.6 6.1 0.00 0.13 0.13 94 1016.8
20260902023033 66 158 2.6 5.2 0.00 0.13 0.13 94 1016.9
20260902021531 66 158 0.9 4.3 0.00 0.13 0.13 94 1016.9
20260902020029 67 148 1.7 6.1 0.00 0.13 0.13 93 1016.9
20260902014530 67 166 2.6 5.2 0.00 0.13 0.13 93 1017.0
20260902013012 67 147 0.9 7.0 0.00 0.13 0.13 92 1016.8
20260902011516 68 126 2.6 5.2 0.00 0.13 0.13 92 1016.5
20260902010029 68 174 0.9 4.3 0.00 0.13 0.13 92 1016.5
20260902004530 68 154 0.9 4.3 0.00 0.13 0.13 92 1016.2
20260902003034 68 182 0.0 3.5 0.00 0.13 0.13 92 1015.9
20260902001512 69 167 0.9 2.6 0.00 0.13 0.13 92 1015.7
20260902000030 69 149 0.0 5.2 0.00 0.13 0.13 91 1015.5
20260901234529 70 165 1.7 4.3 0.00 0.13 0.13 90 1015.6
20260901233028 70 150 0.9 4.3 0.00 0.13 0.13 89 1015.7
20260901231531 72 182 1.7 2.6 0.00 0.13 0.13 89 1015.6
20260901230027 72 182 0.0 1.7 0.00 0.13 0.13 88 1015.6
20260901224528 73 131 0.0 3.5 0.00 0.13 0.13 87 1015.7
20260901223031 73 134 0.0 5.2 0.00 0.13 0.13 87 1015.7
20260901221534 73 178 2.6 4.3 0.00 0.13 0.13 87 1015.6
20260901220054 73 112 0.0 5.2 0.00 0.13 0.13 88 1015.7
20260901214523 73 136 2.6 4.3 0.00 0.13 0.13 88 1015.5
20260901213100 73 178 0.9 7.0 0.00 0.13 0.13 88 1015.5
20260901211531 73 205 2.6 7.0 0.00 0.13 0.13 87 1015.4
20260901210031 73 178 2.6 6.1 0.00 0.13 0.13 87 1015.3
20260901204526 73 169 1.7 6.1 0.00 0.13 0.13 87 1015.4
20260901203047 74 170 2.6 5.2 0.00 0.13 0.13 86 1015.5
20260901201528 74 196 0.9 2.6 0.00 0.13 0.13 86 1015.4
20260901200037 74 208 0.9 6.1 0.00 0.13 0.13 86 1015.4
20260901194540 74 150 0.9 3.5 0.00 0.13 0.13 86 1015.2
20260901193021 74 188 0.9 2.6 0.00 0.13 0.13 86 1015.1
20260901191527 73 188 0.9 1.7 0.00 0.13 0.13 88 1015.2
20260901190032 72 188 0.0 1.7 0.00 0.13 0.13 89 1015.2
20260901184534 73 188 0.0 3.5 0.00 0.13 0.13 88 1015.2
20260901183041 73 144 0.9 4.3 0.00 0.13 0.13 88 1015.1
20260901181526 73 182 2.6 7.0 0.00 0.13 0.13 87 1015.0
20260901180031 73 142 0.9 4.3 0.00 0.13 0.13 88 1014.9
20260901174532 74 26 1.7 7.0 0.00 0.13 0.13 85 1014.9
20260901173049 73 169 0.0 3.5 0.00 0.13 0.13 85 1014.7
20260901171526 73 256 0.9 4.3 0.00 0.13 0.13 86 1014.7
20260901170033 73 198 0.9 3.5 0.00 0.13 0.13 86 1014.8
20260901164510 74 252 0.9 5.2 0.00 0.13 0.13 87 1014.8
20260901163015 73 144 1.7 7.0 0.00 0.14 0.13 87 1014.6
20260901161520 71 134 2.6 7.0 0.00 0.14 0.13 91 1014.7
20260901160031 70 154 2.6 7.0 0.00 0.14 0.13 92 1014.8
20260901154530 69 131 3.5 6.1 0.01 0.14 0.13 92 1014.9
20260901153012 69 146 3.5 5.2 0.01 0.14 0.13 93 1014.9
20260901151518 69 172 4.3 7.8 0.01 0.14 0.13 93 1014.7
20260901150024 68 172 4.3 8.7 0.01 0.14 0.13 97 1014.6
20260901144530 67 149 6.1 11.3 0.00 0.13 0.12 98 1014.6
20260901143042 66 142 4.3 8.7 0.00 0.13 0.12 98 1014.4
20260901141516 65 190 3.5 8.7 0.00 0.13 0.12 98 1014.5
20260901140028 64 150 3.5 7.0 0.00 0.13 0.12 98 1014.6
20260901134527 64 132 1.7 7.8 0.00 0.13 0.12 99 1014.8
20260901133029 64 132 2.6 6.1 0.00 0.13 0.12 99 1014.8
20260901131514 64 175 3.5 6.1 0.00 0.13 0.12 99 1014.7
20260901130034 64 165 2.6 7.0 0.00 0.13 0.12 99 1014.9
20260901124523 64 136 4.3 7.8 0.00 0.13 0.12 99 1015.0
20260901123028 63 162 3.5 7.8 0.00 0.13 0.12 99 1015.1
20260901121532 63 171 3.5 8.7 0.00 0.13 0.12 99 1015.1
20260901120027 63 140 2.6 7.0 0.00 0.13 0.12 99 1015.2
20260901114521 63 161 2.6 5.2 0.00 0.13 0.12 99 1015.2
20260901113034 63 157 1.7 4.3 0.00 0.13 0.12 98 1015.2
20260901111532 63 154 0.9 5.2 0.00 0.13 0.12 98 1015.2
20260901110040 63 174 2.6 5.2 0.00 0.13 0.12 98 1014.7
20260901104519 63 195 0.9 5.2 0.00 0.13 0.12 99 1015.1
20260901103028 63 130 0.0 3.5 0.00 0.13 0.12 98 1015.1
20260901101530 63 167 2.6 4.3 0.01 0.13 0.12 98 1015.1
20260901100033 63 204 0.9 4.3 0.02 0.13 0.12 98 1015.2
20260901094534 63 170 0.9 4.3 0.02 0.13 0.12 98 1015.3
20260901093024 63 195 0.9 5.2 0.02 0.13 0.12 98 1015.4
20260901091525 63 213 0.9 2.6 0.01 0.12 0.11 98 1015.5
20260901090028 63 119 0.9 2.6 0.00 0.11 0.10 98 1015.5
20260901084530 63 209 0.9 2.6 0.01 0.11 0.10 98 1015.3
20260901083033 63 154 0.9 5.2 0.01 0.11 0.10 98 1015.3
20260901081506 63 151 2.6 5.2 0.02 0.11 0.10 98 1015.1
20260901080006 63 184 1.7 4.3 0.08 0.11 0.10 98 1015.4
20260901074508 63 174 0.0 5.2 0.09 0.10 0.09 98 1015.5
20260901073007 63 187 0.9 4.3 0.09 0.10 0.09 98 1015.7
20260901071518 63 152 2.6 5.2 0.08 0.09 0.08 98 1015.7
20260901070017 63 170 1.7 5.2 0.02 0.03 0.02 97 1015.7
20260901064505 63 194 2.6 4.3 0.00 0.01 0.00 97 1016.0
20260901063007 63 209 2.6 5.2 0.00 0.01 0.00 97 1016.1
20260901061508 63 157 1.7 5.2 0.00 0.01 0.00 96 1016.3
20260901060008 63 150 0.9 5.2 0.00 0.01 0.00 96 1016.4
20260901054512 63 134 2.6 7.0 0.00 0.01 0.00 96 1016.5
20260901053010 63 192 0.9 5.2 0.00 0.01 0.00 96 1016.7
20260901051509 63 145 0.9 3.5 0.00 0.01 0.00 95 1016.9
20260901050010 63 130 2.6 7.0 0.00 0.01 0.00 95 1016.7
20260901044514 63 174 1.7 4.3 0.00 0.01 0.00 95 1016.7
20260901043008 63 153 1.7 4.3 0.00 0.01 0.00 94 1017.1
20260901041511 63 163 1.7 4.3 0.00 0.01 0.00 94 1017.1
20260901040012 63 163 0.9 1.7 0.00 0.01 0.00 93 1017.4
20260901034522 63 163 0.9 3.5 0.00 0.01 0.01 93 1017.3
20260901033012 63 155 1.7 4.3 0.00 0.01 0.01 93 1017.2
20260901031507 63 140 1.7 3.5 0.00 0.01 0.01 92 1017.2
20260901030013 63 134 0.9 4.3 0.00 0.01 0.01 92 1017.3